Weather in Maroochydore

Australia     26°39′42″S   153°06′16″E
temp.,
°C
wind,
m/s
gust,
m/s
humid.,
%
clouds,
%
prec.,
mm/h
press.,
hPa
HPBL,
m
13 june, sun
sun1301:00+10w21790 0.0 102030
04:00+10w21820 0.0 101927
07:00+10w218161 0.0 102035
10:00+20w13423 0.0 1019723
13:00+22wsw24330 0.0 10161430
16:00+19ene02500 0.0 101565
19:00+12wnw21730 0.0 101726
22:00+11wnw11700 0.0 101820
14 june, mon
mon1401:00+10wnw21730 0.0 101727
04:00+10wsw21720 0.0 101631
07:00+10w117296 0.0 101724
10:00+18wnw014699 0.0 1017367
13:00+21ne233998 0.0 10151148
16:00+18ene24593 0.0 1014215
19:00+13nw11804 0.0 101629
22:00+12wnw117994 0.0 101726
15 june, tue
tue1501:00+14w1170100 0.0 101621
04:00+11wsw11795 0.0 101622
07:00+11sw11780 0.0 101822
10:00+20se11470 0.0 1018508
13:00+22e22450 0.0 10161089
16:00+18ese136211 0.0 1016284
19:00+13wnw118771 0.1 101922
22:00+12wnw11894 0.1 102023
16 june, wed
wed1601:00+13w11890 0.1 102018
04:00+12w11920 0.1 101916
07:00+12wsw11902 0.0 102132
10:00+21ese11545 0.0 1021475
13:00+23e334733 0.0 10181269
16:00+19ne2371100 0.1 1018321
19:00+15nnw1396100 0.0 101967
22:00+14nw2498100 0.0 101987
17 june, thu
thu1701:00+16nnw21090100 0.0 1018295
04:00+15nw2692100 0.3 1017203
07:00+14nnw299686 0.2 1018226
10:00+20nw267777 0.9 1018820
13:00+22nw365981 0.2 10141239
16:00+22w26625 0.4 1013741
19:00+16w228699 0.0 101642
22:00+14wsw238826 0.0 101666